• In Hungary
  • List of Countries
  • For 7 days
  • Water Temperature
  • Satellite Maps
  • Weather Map
  • News
  • Weather Widgets
  • user-avatar
    Login

    Hourly Weather Nazaret

    Today, 21 August, Monday

    Time Temperature Precipitation Wind Pressure Humidity
    00:00 +27°C° 0 mm 2 mps 726 mmHg 68%
    01:00 +26°C° 0 mm 2 mps 726 mmHg 69%
    02:00 +26°C° 0 mm 2 mps 726 mmHg 71%
    03:00 +26°C° 0 mm 2 mps 726 mmHg 72%
    04:00 +25°C° 0 mm 1 mps 726 mmHg 73%
    05:00 +25°C° 0 mm 1 mps 726 mmHg 74%
    06:00 +26°C° 0 mm 1 mps 726 mmHg 68%
    07:00 +27°C° 0 mm 2 mps 726 mmHg 62%
    08:00 +28°C° 0 mm 2 mps 726 mmHg 56%
    09:00 +30°C° 0 mm 3 mps 726 mmHg 51%
    10:00 +31°C° 0 mm 3 mps 726 mmHg 45%
    11:00 +34°C° 0 mm 4 mps 726 mmHg 39%
    12:00 +34°C° 0 mm 5 mps 726 mmHg 40%
    13:00 +34°C° 0 mm 5 mps 726 mmHg 40%
    14:00 +34°C° 0 mm 6 mps 726 mmHg 41%
    15:00 +33°C° 0 mm 5 mps 726 mmHg 45%
    16:00 +32°C° 0 mm 5 mps 725 mmHg 48%
    17:00 +30°C° 0 mm 5 mps 725 mmHg 52%
    18:00 +29°C° 0 mm 5 mps 725 mmHg 57%
    19:00 +28°C° 0 mm 4 mps 725 mmHg 62%
    20:00 +27°C° 0 mm 3 mps 726 mmHg 67%
    21:00 +27°C° 0 mm 3 mps 726 mmHg 69%
    22:00 +27°C° 0 mm 3 mps 726 mmHg 70%
    23:00 +26°C° 0 mm 2 mps 726 mmHg 72%

    Tomorrow, 22 August, Tuesday

    Time Temperature Precipitation Wind Pressure Humidity
    00:00 +26°C° 0 mm 2 mps 726 mmHg 74%
    01:00 +26°C° 0 mm 2 mps 726 mmHg 75%
    02:00 +25°C° 0 mm 2 mps 725 mmHg 77%
    03:00 +25°C° 0 mm 2 mps 726 mmHg 77%
    04:00 +25°C° 0 mm 2 mps 726 mmHg 78%
    05:00 +25°C° 0 mm 1 mps 726 mmHg 79%
    06:00 +26°C° 0 mm 2 mps 726 mmHg 73%
    07:00 +27°C° 0 mm 2 mps 726 mmHg 66%
    08:00 +28°C° 0 mm 3 mps 727 mmHg 59%
    09:00 +30°C° 0 mm 3 mps 727 mmHg 53%
    10:00 +32°C° 0 mm 4 mps 727 mmHg 47%
    11:00 +34°C° 0 mm 5 mps 726 mmHg 40%
    12:00 +34°C° 0 mm 5 mps 726 mmHg 39%
    13:00 +34°C° 0 mm 6 mps 726 mmHg 38%
    14:00 +35°C° 0 mm 6 mps 725 mmHg 37%
    15:00 +34°C° 0 mm 6 mps 725 mmHg 41%
    16:00 +33°C° 0 mm 6 mps 725 mmHg 45%
    17:00 +32°C° 0 mm 6 mps 724 mmHg 49%
    18:00 +29°C° 0 mm 5 mps 725 mmHg 54%
    19:00 +28°C° 0 mm 4 mps 725 mmHg 60%
    20:00 +27°C° 0 mm 3 mps 725 mmHg 66%
    21:00 +27°C° 0 mm 3 mps 725 mmHg 67%
    22:00 +26°C° 0 mm 3 mps 725 mmHg 69%
    23:00 +26°C° 0 mm 2 mps 725 mmHg 70%

    Day after tomorrow, 23 August, Wednesday

    Time Temperature Precipitation Wind Pressure Humidity
    00:00 +26°C° 0 mm 2 mps 725 mmHg 71%
    01:00 +25°C° 0 mm 2 mps 725 mmHg 72%
    02:00 +25°C° 0 mm 1 mps 725 mmHg 73%
    03:00 +25°C° 0 mm 1 mps 725 mmHg 74%
    04:00 +24°C° 0 mm 1 mps 725 mmHg 75%
    05:00 +24°C° 0 mm 1 mps 725 mmHg 76%
    06:00 +25°C° 0 mm 1 mps 725 mmHg 70%
    07:00 +27°C° 0 mm 1 mps 726 mmHg 63%
    08:00 +28°C° 0 mm 2 mps 726 mmHg 56%
    09:00 +29°C° 0 mm 2 mps 726 mmHg 50%
    10:00 +31°C° 0 mm 2 mps 726 mmHg 43%
    11:00 +33°C° 0 mm 3 mps 726 mmHg 36%
    12:00 +34°C° 0 mm 3 mps 726 mmHg 36%
    13:00 +35°C° 0 mm 4 mps 725 mmHg 35%
    14:00 +35°C° 0 mm 4 mps 725 mmHg 34%
    15:00 +34°C° 0 mm 4 mps 725 mmHg 39%
    16:00 +33°C° 0 mm 4 mps 725 mmHg 43%
    17:00 +32°C° 0 mm 4 mps 725 mmHg 47%
    18:00 +30°C° 0 mm 3 mps 725 mmHg 52%
    19:00 +29°C° 0 mm 3 mps 725 mmHg 57%
    20:00 +28°C° 0 mm 2 mps 725 mmHg 62%
    21:00 +27°C° 0 mm 2 mps 725 mmHg 64%
    22:00 +27°C° 0 mm 1 mps 725 mmHg 67%
    23:00 +26°C° 0 mm 1 mps 725 mmHg 69%

    24 August, Thursday

    Time Temperature Precipitation Wind Pressure Humidity
    00:00 +26°C° 0 mm 1 mps 725 mmHg 71%
    01:00 +25°C° 0 mm 1 mps 725 mmHg 73%
    02:00 +23°C° 0 mm 0 mps 725 mmHg 75%
    03:00 +23°C° 0 mm 0 mps 725 mmHg 76%
    04:00 +22°C° 0 mm 0 mps 725 mmHg 77%
    05:00 +22°C° 0 mm 0 mps 725 mmHg 78%
    06:00 +24°C° 0 mm 0 mps 725 mmHg 69%
    07:00 +26°C° 0 mm 0 mps 725 mmHg 59%
    08:00 +27°C° 0 mm 0 mps 726 mmHg 50%
    09:00 +31°C° 0 mm 1 mps 726 mmHg 42%
    10:00 +34°C° 0 mm 2 mps 726 mmHg 34%
    11:00 +36°C° 0 mm 2 mps 726 mmHg 26%
    12:00 +37°C° 0 mm 3 mps 726 mmHg 27%
    13:00 +37°C° 0 mm 4 mps 725 mmHg 28%
    14:00 +38°C° 0 mm 4 mps 725 mmHg 29%
    15:00 +37°C° 0 mm 4 mps 725 mmHg 32%
    16:00 +36°C° 0 mm 4 mps 725 mmHg 36%
    17:00 +35°C° 0 mm 4 mps 725 mmHg 39%
    18:00 +34°C° 0 mm 4 mps 725 mmHg 46%
    19:00 +33°C° 0 mm 3 mps 725 mmHg 52%
    20:00 +30°C° 0 mm 2 mps 725 mmHg 58%
    21:00 +30°C° 0 mm 2 mps 725 mmHg 61%
    22:00 +29°C° 0 mm 2 mps 725 mmHg 64%
    23:00 +28°C° 0 mm 2 mps 725 mmHg 68%

    25 August, Friday

    Time Temperature Precipitation Wind Pressure Humidity
    00:00 +28°C° 0 mm 1 mps 725 mmHg 69%
    01:00 +28°C° 0 mm 1 mps 725 mmHg 71%
    02:00 +27°C° 0 mm 1 mps 725 mmHg 73%
    03:00 +27°C° 0 mm 1 mps 725 mmHg 74%
    04:00 +27°C° 0 mm 2 mps 725 mmHg 74%
    05:00 +27°C° 0 mm 2 mps 725 mmHg 74%
    06:00 +28°C° 0 mm 2 mps 725 mmHg 66%
    07:00 +30°C° 0 mm 1 mps 725 mmHg 57%
    08:00 +32°C° 0 mm 1 mps 726 mmHg 48%
    09:00 +35°C° 0 mm 2 mps 726 mmHg 42%
    10:00 +37°C° 0 mm 2 mps 726 mmHg 35%
    11:00 +39°C° 0 mm 3 mps 726 mmHg 29%
    12:00 +40°C° 0 mm 3 mps 725 mmHg 29%
    13:00 +41°C° 0 mm 4 mps 725 mmHg 28%
    14:00 +42°C° 0 mm 5 mps 725 mmHg 28%
    15:00 +41°C° 0 mm 5 mps 724 mmHg 30%
    16:00 +40°C° 0 mm 5 mps 724 mmHg 32%
    17:00 +40°C° 0 mm 5 mps 724 mmHg 34%
    18:00 +37°C° 0 mm 4 mps 724 mmHg 39%
    19:00 +35°C° 0 mm 3 mps 725 mmHg 45%
    20:00 +34°C° 0 mm 2 mps 725 mmHg 50%
    21:00 +32°C° 0 mm 2 mps 725 mmHg 53%
    22:00 +31°C° 0 mm 2 mps 725 mmHg 56%
    23:00 +30°C° 0 mm 2 mps 725 mmHg 59%

    26 August, Saturday

    Time Temperature Precipitation Wind Pressure Humidity
    00:00 +30°C° 0 mm 2 mps 724 mmHg 61%
    01:00 +29°C° 0 mm 2 mps 724 mmHg 63%
    02:00 +29°C° 0 mm 2 mps 724 mmHg 66%
    03:00 +28°C° 0 mm 1 mps 724 mmHg 68%
    04:00 +28°C° 0 mm 1 mps 724 mmHg 70%
    05:00 +27°C° 0 mm 1 mps 725 mmHg 72%
    06:00 +29°C° 0 mm 1 mps 725 mmHg 65%
    07:00 +30°C° 0 mm 1 mps 725 mmHg 57%
    08:00 +32°C° 0 mm 1 mps 725 mmHg 50%
    09:00 +35°C° 0 mm 2 mps 725 mmHg 43%
    10:00 +37°C° 0 mm 3 mps 725 mmHg 35%
    11:00 +40°C° 0 mm 4 mps 726 mmHg 28%
    12:00 +40°C° 0 mm 4 mps 725 mmHg 27%
    13:00 +40°C° 0 mm 4 mps 725 mmHg 26%
    14:00 +41°C° 0 mm 5 mps 725 mmHg 25%
    15:00 +40°C° 0 mm 5 mps 724 mmHg 27%
    16:00 +38°C° 0 mm 4 mps 724 mmHg 29%
    17:00 +37°C° 0 mm 4 mps 724 mmHg 31%
    18:00 +35°C° 0 mm 3 mps 724 mmHg 37%
    19:00 +34°C° 0 mm 3 mps 724 mmHg 44%
    20:00 +31°C° 0 mm 2 mps 724 mmHg 50%
    21:00 +30°C° 0 mm 2 mps 724 mmHg 53%
    22:00 +30°C° 0 mm 2 mps 724 mmHg 56%
    23:00 +29°C° 0 mm 2 mps 724 mmHg 59%
    Show more